Regional Weather Roundup
Issued by NWS Boston, MA

Home | Current Version | Previous Version | Text Only | Print | Product List | Glossary On
Versions: 1 2 3 4 5 6 7 8 9 10 11 12 13 14 15 16 17 18 19 20 21 22 23 24 25 26 27 28 29 30 31 32 33 34 35 36 37 38 39 40 41 42 43 44 45 46 47 48 49 50
792
ASUS41 KBOX 211610
RWRBOX

REGIONAL WEATHER ROUNDUP
NATIONAL WEATHER SERVICE TAUNTON MA
1100 AM EST SAT JAN 21 2017

NOTE:  "FAIR" INDICATES FEW OR NO CLOUDS BELOW 12,000 FEET WITH NO
SIGNIFICANT WEATHER AND/OR OBSTRUCTIONS TO VISIBILITY.

MAZALL-211700-
EASTERN MASSACHUSETTS

CITY           SKY/WX    TMP DP  RH WIND       PRES   REMARKS
BOSTON         CLOUDY    44  39  82 W7        29.82F
BEVERLY        CLOUDY    45  39  79 W9        29.81F
LAWRENCE       CLOUDY    42  38  85 SW8       29.84S
BEDFORD        CLOUDY    45  37  73 SW7       29.80F
BLUE HILL        N/A     41  38  89 W6        29.79F
NORWOOD        CLOUDY    46  39  76 SW5       29.82F
MARSHFIELD     PTSUNNY   46  41  81 SW7       29.81F
PLYMOUTH       CLOUDY    45  40  82 W8        29.82F
TAUNTON        CLOUDY    46  39  76 W8        29.83F
NEW BEDFORD    CLOUDY    48  40  73 SW6       29.82F
$$

MAZALL-211700-
CAPE COD AND THE ISLANDS

CITY           SKY/WX    TMP DP  RH WIND       PRES   REMARKS
FALMOUTH       CLOUDY    43  41  93 MISG      29.84F
HYANNIS        CLOUDY    43  40  89 SW13      29.82S
CHATHAM        CLOUDY    44  42  93 SW9       29.83F
PROVINCETOWN   CLOUDY    44  41  89 SW10      29.83F
NANTUCKET      CLOUDY    45  43  93 SW10      29.85F FOG
MARTHAS VNYRD  CLOUDY    45  41  86 W12       29.84F
$$

MAZALL-211700-
CENTRAL AND WESTERN MASSACHUSETTS

CITY           SKY/WX    TMP DP  RH WIND       PRES   REMARKS
WORCESTER      CLOUDY    40  37  89 W8        29.81F FOG
FITCHBURG      PTSUNNY   46  39  76 NW6       29.82F
ORANGE         CLOUDY    39  39 100 S7        29.83F
SPRINGFIELD    PTSUNNY   42  40  93 S7        29.83F
WESTFIELD      CLOUDY    41  39  93 S5        29.84F
NORTH ADAMS    CLOUDY    38  35  89 CALM      29.82F
PITTSFIELD     FOG       39  38  96 CALM      29.80F VSB 1
$$

RIZALL-211700-
RHODE ISLAND

CITY           SKY/WX    TMP DP  RH WIND       PRES   REMARKS
PROVIDENCE     CLOUDY    46  39  76 SW9       29.85F
NEWPORT        CLOUDY    44  42  93 VRB5      29.84F
SMITHFIELD     CLOUDY    44  39  82 W5        29.83F
WESTERLY       CLOUDY    44  39  82 SW9       29.87F HAZE
$$

CTZALL-211700-
CONNECTICUT

CITY           SKY/WX    TMP DP  RH WIND       PRES   REMARKS
BRADLEY INTL   PTSUNNY   42  39  89 SE3       29.85F
HARTFORD       CLOUDY    42  41  96 SE5       29.85F FOG
BRIDGEPORT     CLOUDY    45  41  86 SW7       29.87F
DANBURY        CLOUDY    42  40  92 W6        29.86F FOG
GROTON         CLOUDY    44  40  85 W6        29.86F
NEW HAVEN      CLOUDY    43  40  89 W9        29.86F FOG
CHESTER        CLOUDY    43  43 100 VRB5      29.85F FOG
MERIDEN        CLOUDY    45  40  82 SE5       29.86F
WILLIMANTIC    CLOUDY    44  41  89 CALM      29.87S
OXFORD         CLOUDY    43  37  81 CALM      29.85F
$$

MEZ002-015-021-024-NHZ003-005-008-011-012-014-VTZ005-008-211700-
NORTHERN NEW ENGLAND

CITY           SKY/WX    TMP DP  RH WIND       PRES   REMARKS
PORTLAND ME    MOSUNNY   40  32  73 CALM      29.79F
BANGOR ME      CLOUDY    37  29  72 SW6       29.78F
CONCORD NH     CLOUDY    38  32  79 CALM      29.79F
MANCHESTER NH  NOT AVBL
NASHUA NH      NOT AVBL
PORTSMOUTH NH  CLOUDY    39  36  89 W6        29.80S
JAFFREY NH     NOT AVBL
KEENE NH       NOT AVBL
BURLINGTON VT  CLOUDY    40  37  89 S7        29.78F
MT. WASHINGTON FOG       30  30 100 W35         N/A  VSB 1/16WCI  14
$$

NYZ052-076-211700-
EASTERN NEW YORK

CITY           SKY/WX    TMP DP  RH WIND       PRES   REMARKS
ALBANY         CLOUDY    42  37  82 S6        29.83F
NEW YORK CITY  PTSUNNY   47  41  80 NW7       29.87F
$$

ANZALL-211700-
MARINE OBSERVATIONS

STATION/POSITION TIME  TEMP    WIND        PRES    VSBY  WAVE
                       AIR SEA DIR/SP/G                  HT/PER
                 (UTC) (F)     (DEG/KT/KT) (MB)    (MI)  (FT/S)
BOSTON BUOY      1450   42 44  240/  8/  8 1009.5          4/11
BUZZARDS BAY     1500   41     250/ 13/ 14 1011.6F
NANTUCKET SOUND  1450   43 43  220/  8/ 10 1011.4          1/ 5
MASS BAY-STELLWA 1504   42 44  240/ 10/ 12 1009.6F  1 7/8  5/11
ISLE OF SHOALS   1500   39     250/  8/  9 1009.5F
S OF BLOCK IS    1555      47                N/A           4/12
$$

......................KEY.........................
  SKY/WX - SKY CONDITION/PRESENT WEATHER
  TMP    - TEMPERATURE IN FAHRENHEIT
  DWPT   - DEWPOINT IN FAHRENHEIT
  RH     - RELATIVE HUMIDITY IN PERCENT
  WIND   - DIRECTION AND SPEED IN MPH
  PRES   - MEAN SEA LEVEL PRESSURE IN INCHES OF HG
  WCI    - WIND CHILL INDEX
  VSB    - VISIBILITY IN MILES
  HX     - HEAT INDEX
  TC     - TEMPERATURE IN CELSIUS
  VRB    - VARIABLE WIND DIRECTION
  N/A    - NOT AVAILABLE




USA.gov is the U.S. government's official web portal to all federal, state and local government web resources and services.